STARLINK-34101, 63812

Orbit data source: Space-Track

STARLINK-34101, 63812 is a payload satellite owned by SpaceX/Seattle (US) in LEO that was launched on Sun, 04 May 2025 UTC via an FALCON 9 launch vehicle from the Air Force Eastern Test Range (AFETR). Payload-class satellites include a variety of spacecraft equipped with specific instruments for various scientific and technological missions. These include communications satellites like Starlink; space stations such as the ISS; scientific satellites like the Hubble; Earth observation satellites from companies like Planet Labs, Umbra, and HawkEye 360; GPS; miniature CubeSats for education and research; and military/defense satellites.

Loading next visibility...
Identifier
63812, 2025-092J
Orbit
LEO
Country
Flag of USUS
Related business
Manufacturer
SpaceX/Seattle
Mission
Operational Commercial Communications
Bus & Motor
STARLINK V2MO, Unknown motor
Mass
575 kg wet, ~530 kg dry
Launch date (UTC)
2025-05-04 (1 year ago)
Launch vehicle
FALCON 9
Launch site
Air Force Eastern Test Range (AFETR)
Object type
Payload
Rocket body
Debris
Shape & HBR
Box + 2 Pan, 17.7 m
Radar Cross Section
36.964 m², Large (>1 m²)

Expand to show TLE details & history
Last TLE update: 20 hours ago

TLE from 20 hours ago
0 STARLINK-34101
1 63812U 25092J   26177.97954089  .00022103  00000-0  81042-3 0  9998
2 63812  43.0008 274.9425 0001309 271.5086  88.5616 15.27576466 65275
Epoch: 2026-06-26T23:30Z
TLE epoch observation values (Epoch: 2026-06-26T23:30:32.332Z)
Latitude
-0.00001°
Longitude
7.20749°
Altitude
482.813 km
Speed
7.626 km/s
True Right ascension
18h 19m 46s
True Declination
0° 00' 00"
Sunlit
Object was in full shadow at epoch
Visualization orbit readout
Latitude
Unknown
Longitude
Unknown
Altitude
Unknown
Speed
Unknown
Apparent Right ascension
Unknown
Apparent Declination
Unknown
Sunlit
N/A
Visualization observer readout
Local Sidereal Time
07:19:22
Azimuth
Unknown
Elevation
Unknown
Doppler factor
Unknown
Orbital elements
Apogee altitude
485.903 km
Perigee altitude
484.106 km
Semi-major axis
6,863.142 km
Eccentricity
0.00013
Inclination
43.0008°
RAAN
274.9425°
Arg. of periapsis
271.5086°
True anomaly
88.5766°
Mean anomaly
88.5616°
Eccentric anomaly
88.5691°
Mean motion
3.81732 °/min
Orbital period
94.31 mins
BSTAR
0.00081042
Loading maneuver chart data...
Computing Atmospheric mass density...
Loading historical data...
Loading historical data...
Loading historical data...
Loading historical data...
Loading historical data...
Loading historical data...
Loading historical data...

Documentation

Showing up to 5 results
|